[Iaude] MPEC B93: 2017 BT6 [a=2.48,e=0.63,i=5.6,H=24.8]

mpec at si.edu mpec at si.edu
Sat Jan 28 08:21:26 EST 2017


M.P.E.C. 2017-B93                                Issued 2017 Jan. 28, 13:18 UT
 
     The Minor Planet Electronic Circulars contain information on unusual
         minor planets and routine data on comets.  They are published
    on behalf of Division F of the International Astronomical Union by the
          Minor Planet Center, Smithsonian Astrophysical Observatory,
                          Cambridge, MA 02138, U.S.A.

             Prepared using the Tamkin Foundation Computer Network

                              MPC at CFA.HARVARD.EDU
            URL http://www.minorplanetcenter.net/    ISSN 1523-6714


                                   2017 BT6
 
Observations:
     K17B06T* C2017 01 26.40751 08 15 14.92 +45 20 42.0                qEB093G96
     K17B06T  C2017 01 26.42117 08 15 28.12 +45 24 17.0          19.5 VqEB093G96
     K17B06T  C2017 01 26.43459 08 15 41.13 +45 27 47.7          19.4 VqEB093G96
     K17B06T  C2017 01 26.44886 08 15 55.10 +45 31 31.2          19.4 VqEB093G96
     K17B06T  C2017 01 26.48540 08 16 31.65 +45 41 03.2          19.4 VqEB093G96
     K17B06T  C2017 01 26.48582 08 16 32.05 +45 41 09.1          19.3 VqEB093G96
     K17B06T  C2017 01 26.48623 08 16 32.48 +45 41 15.8          19.0 VqEB093G96
     K17B06T  C2017 01 26.48664 08 16 32.91 +45 41 22.6          19.5 VqEB093G96
     K17B06T KC2017 01 26.73285 08 21 29.37 +46 48 44.9          19.2 RoEB093K88
     K17B06T KC2017 01 26.73649 08 21 33.48 +46 49 49.1          18.8 RoEB093K88
     K17B06T KC2017 01 26.74013 08 21 37.70 +46 50 53.2          19.1 RoEB093K88
     K17B06T KC2017 01 26.81086 08 23 00.02 +47 11 29.0          19.5 RoEB093K51
     K17B06T KC2017 01 26.81271 08 23 02.17 +47 12 01.6          19.2 RoEB093K51
     K17B06T KC2017 01 26.81452 08 23 04.25 +47 12 33.6          19.2 RoEB093K51
     K17B06T KC2017 01 26.85588 08 23 52.99 +47 24 15.3                qEB093J95
     K17B06T KC2017 01 26.86030 08 23 56.10 +47 25 47.0          19.1 RuEB093B15
     K17B06T KC2017 01 26.86172 08 23 57.77 +47 26 11.8          18.8 RuEB093B15
     K17B06T KC2017 01 26.86314 08 23 59.43 +47 26 36.8          18.9 RuEB093B15
     K17B06T KC2017 01 26.86456 08 24 01.08 +47 27 01.9          19.3 RuEB093B15
     K17B06T KC2017 01 26.87304 08 24 13.21 +47 29 20.0                qEB093J95
     K17B06T KC2017 01 26.88490 08 24 27.24 +47 32 50.3          19.0 RqEB093J95
     K17B06T KC2017 01 26.88780 08 24 26.68 +47 34 14.4          19.5 V EB093L04
     K17B06T KC2017 01 26.89256 08 24 32.26 +47 35 38.1          19.3 V EB093L04
     K17B06T  C2017 01 27.20544 08 31 30.76 +49 09 10.6          19.7 RoEB093926
     K17B06T  C2017 01 27.20693 08 31 32.76 +49 09 38.7          19.2 RoEB093926
     K17B06T  C2017 01 27.20844 08 31 34.72 +49 10 06.8          19.4 RoEB093926
     K17B06T KC2017 01 27.21184 08 31 34.94 +49 11 03.3          19.4 RqEB093H36
     K17B06T KC2017 01 27.21937 08 31 44.95 +49 13 22.9          19.2 RqEB093H36
     K17B06T KC2017 01 27.22314 08 31 49.93 +49 14 32.9          19.5 RqEB093H36
     K17B06T KC2017 01 27.22690 08 31 54.86 +49 15 42.3          19.2 RqEB093H36
     K17B06T  C2017 01 27.33818 08 34 29.42 +49 50 24.3          19.7 VqEB093G96
     K17B06T  C2017 01 27.34227 08 34 34.97 +49 51 39.9                qEB093G96
     K17B06T  C2017 01 27.34268 08 34 35.60 +49 51 48.0                qEB093G96
     K17B06T  C2017 01 27.34327 08 34 36.42 +49 51 58.7          19.1 VqEB093G96
     K17B06T KC2017 01 27.83999 08 48 34.27 +52 30 12.0          19.0 VSEB093C43
     K17B06T KC2017 01 27.84217 08 48 38.18 +52 30 56.3          19.4 VSEB093C43
     K17B06T KC2017 01 27.84436 08 48 42.14 +52 31 41.0          19.0 VSEB093C43
     K17B06T KC2017 01 27.84654 08 48 45.95 +52 32 25.3          19.4 VSEB093C43
     K17B06T  C2017 01 27.88900 08 50 03.40 +52 46 57.9                qEB093246
     K17B06T  C2017 01 27.88925 08 50 03.71 +52 47 03.7                qEB093246
     K17B06T  C2017 01 27.88938 08 50 03.86 +52 47 06.2                qEB093246
     K17B06T  C2017 01 27.88951 08 50 04.26 +52 47 08.3                qEB093246
     K17B06T  C2017 01 27.88976 08 50 04.80 +52 47 14.1                qEB093246
     K17B06T  C2017 01 28.21276 09 01 11.59 +54 37 20.5          19.8 VqEB093G96
     K17B06T  C2017 01 28.21300 09 01 12.12 +54 37 25.4          19.6 VqEB093G96
     K17B06T  C2017 01 28.21324 09 01 12.62 +54 37 30.8          19.7 VqEB093G96
     K17B06T  C2017 01 28.21349 09 01 13.15 +54 37 36.1          19.6 VqEB093G96
     K17B06T  C2017 01 28.49531 09 11 48.41 +56 14 57.1          19.2 RoEB093926
     K17B06T  C2017 01 28.49683 09 11 52.11 +56 15 27.7          19.1 RoEB093926
     K17B06T  C2017 01 28.49833 09 11 55.85 +56 15 58.3          18.9 RoEB093926
 
Observer details:
246 Klet Observatory-KLENOT.  Observers M. Tichy, J. Ticha.  Measurer M. Tichy.
    1.06-m KLENOT Telescope + CCD.
926 Tenagra II Observatory.  Observers M. Schwartz, P. R. Holvorcem.  Measurer
    M. Schwartz.  0.81-m f/7 Ritchey-Chretien + CCD.
B15 Inastars Observatory, Potsdam (since 2006).  Observer B. Thinius.  0.36-m
    f/5.6 Schmidt-Cassegrain + CCD.
C43 Hoyerswerda.  Observer P. Lindner.  0.30-m f/6.3 Schmidt-Cassegrain + CCD.
G96 Mt. Lemmon Survey.  Observers D. C. Fuls, R. A. Kowalski.  Measurers
    E. J. Christensen, D. C. Fuls, A. R. Gibbs, A. D. Grauer, J. A. Johnson,
    R. A. Kowalski, S. M. Larson, G. J. Leonard, R. G. Matheny, R. L. Seaman,
    F. C. Shelly.  1.5-m reflector + 10K CCD.
H36 Sandlot Observatory, Scranton.  Observer G. Hug.  0.56-m reflector + CCD.
J95 Great Shefford.  Observer P. Birtwhistle.  0.40-m f/6.0 Schmidt-Cassegrain
    + CCD.
K51 Osservatorio del Celado, Castello Tesino.  Observers G. Favero, R. Furgoni.
    Measurer R. Furgoni.  0.80-m f/4 reflector + CCD.
K88 GINOP-KHK, Piszkesteto.  Observer K. Sarneczky.  0.60-m Schmidt + CCD.
L04 ROASTERR-1 Observatory, Cluj-Napoca.  Observer L. Hudin.  0.3-m f/5.0
    reflector + CCD.
 
Orbital elements:
2017 BT6                                                 Earth MOID = 0.0332 AU
Epoch 2017 Feb. 16.0 TT = JDT 2457800.5                 MPC
M 356.59074              (2000.0)            P               Q
n   0.25197085     Peri.   57.75643     -0.98507697     -0.14736031
a   2.4825758      Node   113.63585     +0.10612915     -0.92682169
e   0.6329794      Incl.    5.57057     +0.13549893     -0.34537876
P   3.91           H   24.8           G   0.15           U   6
Residuals in seconds of arc
170126 G96  1.0-  1.3-    170126 B15  0.6+  0.6+    170127 C43  0.0   0.6-
170126 G96  0.0   0.2-    170126 B15  0.5+  0.7+    170127 C43  0.1-  0.6-
170126 G96  0.1+  0.4+    170126 J95  0.1-  0.0     170127 C43  0.1+  0.5-
170126 G96  0.0   0.5+    170126 J95  0.3+  0.1-    170127 C43  0.9-  0.6-
170126 G96  0.1+  0.2+    170126 L04  0.2-  0.4+    170127 246  0.7+  0.4-
170126 G96  0.2-  0.5-    170126 L04  0.4+  0.4+    170127 246  0.7-  0.3+
170126 G96  0.1-  0.2-    170127 926  0.1-  0.2+    170127 246  1.4-  0.2+
170126 G96  0.1+  0.2+    170127 926  0.2+  0.3+    170127 246  0.0   0.4-
170126 K88  0.1-  0.7-    170127 926  0.2-  0.1+    170127 246  0.8+  0.4+
170126 K88  0.6-  0.1-    170127 H36  0.1+  0.2+    170128 G96  0.2-  0.1-
170126 K88  0.0   0.3+    170127 H36  0.7+  0.1+    170128 G96  0.1-  0.3-
170126 K51  0.3-  0.0     170127 H36  0.6+  0.2+    170128 G96  0.1-  0.1+
170126 K51  0.1-  0.0     170127 H36  0.1+  0.1-    170128 G96  0.1-  0.0
170126 K51  0.2-  0.0     170127 G96  0.3+  0.1+    170128 926  0.4+  0.2+
170126 J95  0.2-  0.4-    170127 G96  0.7-  0.1-    170128 926  0.0   0.1+
170126 B15  0.4+  0.9+    170127 G96  0.0   0.4+    170128 926  0.4+  0.5+
170126 B15  0.5+  0.7+    170127 G96  0.0   0.1+

Ephemeris:
2017 BT6                 a,e,i = 2.48, 0.63, 6                   q = 0.9112
Date    TT    R. A. (2000) Decl.     Delta      r     Elong.  Phase     V
2016 12 29    07 04 56.9 +16 00 48   0.2672  1.2471   169.5     8.3    23.0
...
2017 01 13    07 13 12.0 +21 05 15   0.1422  1.1250   174.1     5.1    21.2
...
2017 01 21    07 30 13.8 +29 45 32   0.08440 1.0663   166.3    12.6    20.3
...
2017 01 27    08 26 43.4 +48 06 50   0.04770 1.0265   150.3    28.4    19.5
2017 01 28    08 53 29.9 +53 23 56   0.04293 1.0202   144.8    33.8    19.4
2017 01 29    09 36 24.2 +59 10 56   0.03891 1.0141   137.8    40.7    19.4
...
2017 02 04    17 01 19.3 +41 31 21   0.04079 0.9806    81.5    96.2    21.3
...
2017 02 12    18 10 38.0 +12 00 38   0.08618 0.9449    58.4   117.1    24.0
...
2017 02 27    18 40 05.1 -00 35 11   0.1876  0.9119    60.2   109.5    25.1

A. U. Tomatic                (C) Copyright 2017 MPC           M.P.E.C. 2017-B93




More information about the Iaude mailing list